Regional Weather Roundup
Issued by NWS Upton, NY

Current Version | Previous Version | Text Only | Print | Product List | Glossary On
Versions: 1 2 3 4 5 6 7 8 9 10 11 12 13 14 15 16 17 18 19 20 21 22 23 24 25 26 27 28 29 30 31 32 33 34 35 36 37 38 39 40 41 42 43 44 45 46 47 48 49 50
000
ASUS41 KOKX 270305
RWROKX

REGIONAL WEATHER ROUNDUP
NATIONAL WEATHER SERVICE NEW YORK NY
1000 PM EST WED NOV 26 2014

NOTE: "FAIR" INDICATES FEW OR NO CLOUDS BELOW 12,000 FEET WITH NO
SIGNIFICANT WEATHER AND/OR OBSTRUCTIONS TO VISIBILITY.

NYZ071-072-176-178-NJZ106-104-270400-
NEW YORK CITY METRO AREA


CITY           SKY/WX    TMP DP  RH WIND       PRES   REMARKS
CENTRAL PARK   LGT SNOW  35  31  85 MISG      29.82S FOG
LAGUARDIA APRT LGT SNOW  35  33  92 NW18G28   29.80R FOG     WCI  24
KENNEDY INTL   FLURRIES  36  32  85 N22G28    29.80R WCI  25
NEWARK/LIBERTY LGT RAIN  36  34  92 NW15      29.82R WCI  27
BRNX BOT. GARD   N/A     34  32  93 NW5       29.82R WCI  30
TETERBORO      LGT SNOW  35  31  85 N12       29.81R WCI  27
$$

NYZ177-179-078>081-270400-
LONG ISLAND NEW YORK

CITY           SKY/WX    TMP DP  RH WIND       PRES   REMARKS
FARMINGDALE    MIX PCPN  36  32  85 N13G28    29.77R WCI  27
ISLIP          LGT SNOW  37  34  89 N17G28    29.71R FOG     WCI  27
SHIRLEY        LGT SNOW  37  34  89 N20G35    29.72S FOG     WCI  27
WESTHAMPTON    LGT SNOW  36  33  89 N21G28    29.69F FOG     WCI  25
MONTAUK POINT    N/A     39  36  89 N22G30    29.65R WCI  29
$$

NYZ052-065-067-270400-
HUDSON VALLEY

CITY           SKY/WX    TMP DP  RH WIND       PRES   REMARKS
WHITE PLAINS   LGT SNOW  33  30  88 NW21G32   29.77R FOG     WCI  21
NEWBURGH       LGT SNOW  32  32 100 N9        29.85F WCI  24
MONTGOMERY     LGT SNOW  33  31  92 NE6       29.84S FOG     WCI  28
POUGHKEEPSIE   LGT SNOW  34  30  85 N13G23    29.84F FOG     WCI  25
ALBANY         LGT SNOW  32  29  88 N10       29.91F FOG     WCI  24
$$

NJZ001-105-106-008-010-013-015-019>022-104-270400-
NEW JERSEY

CITY           SKY/WX    TMP DP  RH WIND       PRES   REMARKS
NEWARK/LIBERTY LGT RAIN  36  34  92 NW15      29.82R WCI  27
TETERBORO      LGT SNOW  35  31  85 N12       29.81R WCI  27
CALDWELL       LGT RAIN  36  30  79 N8        29.83S WCI  30
MORRISTOWN     FLURRIES  37  32  81 N7G16     29.82S WCI  32
SOMERVILLE     CLOUDY    36  31  82 N6        29.83R WCI  31
SUSSEX         LGT SNOW  34  31  88 VRB5      29.84F FOG     WCI  30
ANDOVER          N/A     33  31  92 VRB5      29.84F WCI  29
TRENTON        FLURRIES  35  31  85 N9        29.83R WCI  28
MILLVILLE      CLOUDY    37  34  89 NW9G18    29.87R WCI  30
ATLANTIC CITY  CLOUDY    36  35  96 NW15      29.84R WCI  27
WRIGHTSTOWN    LGT RAIN  36  34  94 NW14G21   29.81S WCI  27
TOMS RIVER     CLOUDY    36  34  93 CALM      29.81F
BELMAR         CLOUDY    36  28  75 NW13      29.80R WCI  27
$$

PAZ047>061-062-071-270400-
EASTERN PENNSYLVANIA

CITY           SKY/WX    TMP DP  RH WIND       PRES   REMARKS
PHILADELPHIA   CLOUDY    37  32  82 NW9       29.88S WCI  30
ALLENTOWN      CLOUDY    35  29  78 N7        29.87S WCI  29
SCRANTON       LGT SNOW  32  28  85 NW9       29.90F FOG     WCI  24
$$

CTZ002-004>006-009-010-012-RIZ004-006-007-MAZ004-011-015-270400-
SOUTHERN NEW ENGLAND
 IN CT

CITY           SKY/WX    TMP DP  RH WIND       PRES   REMARKS
BRADLEY INTL   LGT SNOW  35  31  85 N17       29.74F FOG     WCI  25
HARTFORD       LGT SNOW  34  31  88 N15G25    29.75S FOG     WCI  24
DANBURY        LGT SNOW  33  31  92 N9G17     29.78F FOG     WCI  25
WTRBRY/OXFORD  CLOUDY    34  27  75 N16       29.74S WCI  23
BRIDGEPORT     LGT RAIN  36  34  92 N13       29.74F FOG     WCI  27
MERIDEN        MIX PCPN  36  31  82 N15G24    29.74F WCI  27
NEW HAVEN      CLOUDY    39  33  79 N18G24    29.72F WCI  30
CHESTER        MIX PCPN  34  32  93 N16G24    29.69S WCI  23
GROTON         LGT SNOW  34  34 100 N18G26    29.66R FOG     WCI  23
WILLIMANTIC    LGT SNOW  35  32  88 N12       29.70F FOG     WCI  27

 IN RI

CITY           SKY/WX    TMP DP  RH WIND       PRES   REMARKS
PROVIDENCE     LGT SNOW  35  33  92 N21G30    29.64F FOG     WCI  24
BLOCK ISLAND   CLOUDY    39  36  87 N17G28    29.59R WCI  30
WESTERLY       LGT RAIN  36  33  89 N17G26    29.63S WCI  26

 IN MA

CITY           SKY/WX    TMP DP  RH WIND       PRES   REMARKS
BOSTON         LGT SNOW  33  32  96 N20G29    29.70F FOG     WCI  21
WORCESTER      LGT SNOW  30  30 100 N20G33    29.69F FOG     WCI  17
WESTFIELD      LGT SNOW  34  31  88 N17       29.76F FOG     WCI  23
PROVINCETOWN   CLOUDY    46  41  81 NE29G40   29.57F
NANTUCKET      LGT RAIN  48  45  89 NE22G30   29.46F FOG
$$

ANZ330-335-338-340-345-350-353-355-270400-
COASTAL MARINE OBSERVATIONS


STATION/POSITION TIME  SKY/WX   TEMP    WIND        PRES    VSBY  WAVE
                                AIR SEA DIR/SP/G                  HT/PER
                 (UTC)          (F)     (DEG/KT/KT) (MB)    (MI)  (FT/S)
NY HARB ENTRANCE 0300            40 55  330/ 25/ 31 1008.0          8/ 9
4S FIRE IS       0300               52                N/A           8/ 8
20S FIRE ISLAND  0300            41 54  340/ 27/ 33 1005.4         11/ 9
23SW MTP         0200                                 N/A          14/ 8
HUDSON CANYON    0300            45 59  330/ 31/ 41 1002.7         17/ 9
EXECUTION ROCKS  0300            37 48  330/ 19/ 29   N/A
WESTERN LI SOUND 0300            37     340/ 19/ 23   N/A           3/ 6
CENTRAL LI SOUND 0200            37 50  360/ 21/ 27   N/A           4/ 3
EASTERN LI SOUND 0200            39 52  360/ 21/ 29   N/A
ROBBINS REEF     0300            35     330/ 16/ 21 1008.2
$$


>>>>>>>>>>>>>>>>>>>>>>>>>>>> KEY <<<<<<<<<<<<<<<<<<<<<<<<<<<
>                                                          <
>     SKY/WX - SKY CONDITION/PRESENT WEATHER               <
>     TMP    - TEMPERATURE IN FAHRENHEIT                   <
>     DP     - DEWPOINT IN FAHRENHEIT                      <
>     RH     - RELATIVE HUMIDITY IN PERCENT                <
>     WIND   - DIRECTION AND SPEED IN MPH                  <
>     PRES   - MEAN SEA LEVEL PRESSURE IN INCHES OF HG     <
>     WCI    - WIND CHILL INDEX                            <
>     VSB    - VISIBILITY IN MILES                         <
>     HX     - HEAT INDEX                                  <
>     TC     - TEMPERATURE IN CELSIUS                      <
>     VRB    - VARIABLE WIND DIRECTION                     <
>                                                          <
>>>>>>>>>>>>>>>>>>>>>>>>>>>> KEY <<<<<<<<<<<<<<<<<<<<<<<<<<<




USA.gov is the U.S. government's official web portal to all federal, state and local government web resources and services.